Tracking 19846 objects as of 20-Sep-2019
HD Live streaming from Space Station
objects crossing your sky now

NSAT 110

Track NSAT 110 now!
NSAT 110 is classified as:


NORAD ID: 26559
Int'l Code: 2000-060A
Perigee: 36,088.7 km
Apogee: 36,114.8 km
Inclination: 0.6 °
Period: 1,451.9 minutes
Semi major axis: 42472 km
RCS: 12.5892 m2 (large)
Launch date: October 6, 2000
Source: Japan (JPN)
Launch site: FRENCH GUIANA (FRGUI)

24 Ku-band; voice and video communications to Japan.
aabbcc
Your satellite tracking list
Your tracking list is empty




NASA's NSSDC Master Catalog

Two Line Element Set (TLE):
1 26559U 00060A   19262.81699333 -.00000045 +00000-0 +00000-0 0  9995
2 26559 000.6076 096.4293 0003081 356.6729 034.3519 00.99183079069401
Source of the keplerian elements: AFSPC